[TLELIST] Archives

 

[list_settings.list_name] Current TLEs

August 7th 2012 PST

HST 1 20580U 90037B 12219.20474504 .00001468 00000-0 95042-4 0 494 2 20580 028.4697 176.1877 0003518 227.1019 132.9267 15.02664819 22263 ISS (ZARYA) 1 25544U 98067A 12220.48628363 .00009475 00000-0 14555-3 0 738 2 25544 051.6413 226.1281 0001274 032.2534 129.4016 15.54998963785997 CXO 1 25867U 99040B 12221.84164440 -.00000819 00000-0 00000+0 0 7759 2 25867 072.9855 000.8660 8738481 278.1970 000.7392 00.37802447 9352 ____________________________________________________________________ These 2-Line ...Continue Reading

[list_settings.list_name] Current TLEs

August 6th 2012 PST

HST 1 20580U 90037B 12219.20474504 .00001468 00000-0 95042-4 0 494 2 20580 028.4697 176.1877 0003518 227.1019 132.9267 15.02664819 22263 ISS (ZARYA) 1 25544U 98067A 12219.45548124 .00009602 00000-0 14750-3 0 671 2 25544 051.6405 231.2742 0001286 027.4524 119.9832 15.54978746785835 CXO 1 25867U 99040B 12221.84258133 -.00000819 00000-0 00000+0 0 7741 2 25867 072.9858 000.8682 8738499 278.1975 000.8669 00.37801799 9350 ____________________________________________________________________ These 2-Line ...Continue Reading

[list_settings.list_name] Current TLEs

August 5th 2012 PST

HST 1 20580U 90037B 12218.20848502 .00001396 00000-0 89778-4 0 484 2 20580 028.4698 182.7094 0003854 216.0906 143.9641 15.02661881 22111 ISS (ZARYA) 1 25544U 98067A 12218.36189705 .00009670 00000-0 14861-3 0 607 2 25544 051.6404 236.7325 0001175 024.2444 117.3740 15.54957057785667 CXO 1 25867U 99040B 12219.19719059 -.00000840 00000-0 00000+0 0 7738 2 25867 072.9695 001.0272 8741643 278.2183 000.7078 00.37804977 9347 ____________________________________________________________________ These 2-Line ...Continue Reading

[list_settings.list_name] Current TLEs

August 4th 2012 PST

HST 1 20580U 90037B 12215.15326402 .00001229 00000-0 77543-4 0 476 2 20580 028.4693 202.7095 0003583 184.7121 175.3444 15.02654014 21657 ISS (ZARYA) 1 25544U 98067A 12217.32554337 .00009474 00000-0 14587-3 0 549 2 25544 051.6408 241.9065 0001010 023.9088 072.5503 15.54935358785500 CXO 1 25867U 99040B 12219.19719059 -.00000840 00000-0 00000+0 0 7738 2 25867 072.9695 001.0272 8741643 278.2183 000.7078 00.37804977 9347 ____________________________________________________________________ These 2-Line ...Continue Reading

[list_settings.list_name] Current TLEs

August 3rd 2012 PST

HST 1 20580U 90037B 12215.15326402 .00001229 00000-0 77543-4 0 476 2 20580 028.4693 202.7095 0003583 184.7121 175.3444 15.02654014 21657 ISS (ZARYA) 1 25544U 98067A 12216.43388150 .00009208 00000-0 14207-3 0 485 2 25544 051.6407 246.3578 0000985 016.4946 125.3621 15.54916574785368 CXO 1 25867U 99040B 12216.55107839 -.00000718 00000-0 00000+0 0 7725 2 25867 072.9453 001.2227 8744827 278.2121 000.5328 00.37803817 9337 ____________________________________________________________________ These 2-Line ...Continue Reading

[list_settings.list_name] Current TLEs

August 2nd 2012 PST

HST 1 20580U 90037B 12215.15326402 .00001229 00000-0 77543-4 0 476 2 20580 028.4693 202.7095 0003583 184.7121 175.3444 15.02654014 21657 ISS (ZARYA) 1 25544U 98067A 12215.44453532 .00010324 00000-0 15134-3 0 438 2 25544 051.6403 251.2956 0000739 006.3533 353.7991 15.54897739189362 CXO 1 25867U 99040B 12216.55107839 -.00000718 00000-0 00000+0 0 7725 2 25867 072.9453 001.2227 8744827 278.2121 000.5328 00.37803817 9337 ____________________________________________________________________ These 2-Line ...Continue Reading

[list_settings.list_name] Current TLEs

August 1st 2012 PST

HST 1 20580U 90037B 12214.15699594 .00001237 00000-0 78118-4 0 467 2 20580 028.4694 209.2329 0003720 175.9489 184.1259 15.02651915 21505 ISS (ZARYA) 1 25544U 98067A 12214.35192505 .00015608 00000-0 23600-3 0 355 2 25544 051.6426 256.7480 0000800 020.7638 339.3500 15.54883647785040 CXO 1 25867U 99040B 12216.55107839 -.00000718 00000-0 00000+0 0 7725 2 25867 072.9453 001.2227 8744827 278.2121 000.5328 00.37803817 9337 ____________________________________________________________________ These 2-Line ...Continue Reading

[list_settings.list_name] Current TLEs

July 31st 2012 PST

HST 1 20580U 90037B 12212.43012261 .00001098 00000-0 67986-4 0 451 2 20580 028.4689 220.5336 0003367 153.7726 206.3029 15.02647762 21246 ISS (ZARYA) 1 25544U 98067A 12213.40953191 .00014627 00000-0 22190-3 0 304 2 25544 051.6432 261.4506 0000873 005.9578 115.5792 15.54850667784892 CXO 1 25867U 99040B 12213.90415939 -.00000706 00000-0 00000+0 0 7710 2 25867 072.9212 001.4113 8746026 278.1956 000.3095 00.37799613 9320 ____________________________________________________________________ These 2-Line ...Continue Reading

[list_settings.list_name] Current TLEs

July 30th 2012 PST

HST 1 20580U 90037B 12212.23086858 .00000929 00000-0 55602-4 0 445 2 20580 028.4691 221.8383 0003512 155.1633 204.9175 15.02646653 21211 ISS (ZARYA) 1 25544U 98067A 12212.39215278 .00008370 00000-0 13029-3 0 239 2 25544 051.6433 266.5309 0000699 000.2693 182.8004 15.54812028784737 CXO 1 25867U 99040B 12213.90415939 -.00000706 00000-0 00000+0 0 7710 2 25867 072.9212 001.4113 8746026 278.1956 000.3095 00.37799613 9320 ____________________________________________________________________ These 2-Line ...Continue Reading

[list_settings.list_name] Current TLEs

July 29th 2012 PST

HST 1 20580U 90037B 12211.23459299 .00000721 00000-0 40339-4 0 437 2 20580 028.4698 228.3589 0003650 146.6292 213.4553 15.02644272 21060 ISS (ZARYA) 1 25544U 98067A 12211.15468926 .00004282 00000-0 70309-4 0 167 2 25544 051.6438 272.6994 0000713 347.0655 104.9660 15.54747043784543 CXO 1 25867U 99040B 12211.25940682 -.00000872 00000-0 00000+0 0 7707 2 25867 072.9002 001.5812 8746266 278.1820 000.3990 00.37800517 9319 ____________________________________________________________________ These 2-Line ...Continue Reading
  • This mailing list is a public mailing list - anyone may join or leave, at any time.
  • This mailing list is announce-only.

International Space Station (ISS) / Hubble Space Telescope (HST) / Chandra X-Ray Observatory Orbital Data via EMAIL

Privacy Policy:

Private list